Weather History for KOTH - July, 2013

Change the Weather History Date:

Thursday, July 4, 2013

  Actual Average Record
Temperature  
Mean Temperature 69 °F 58 °F  
Max Temperature 75 °F 64 °F 78 °F (1931)
Min Temperature 63 °F 52 °F 43 °F (1929)
Degree Days  
Heating Degree Days 0 7  
Month to date heating degree days 0 28  
Since 1 June heating degree days 171 295  
Since 1 July heating degree days 0 28  
Cooling Degree Days 4 0  
Month to date cooling degree days 13 0  
Year to date cooling degree days 33 0  
Since 1 June cooling degree days 29 0  
Growing Degree Days 18 (Base 50)    
Moisture  
Dew Point 61 °F    
Average Humidity 81    
Maximum Humidity 93    
Minimum Humidity 64    
Precipitation  
Precipitation 0.00 in 0.02 in 0.45 in (1986)
Month to date precipitation 0.00 0.09  
Year to date precipitation 17.49 36.21  
Sea Level Pressure  
Sea Level Pressure 30.12 in    
Wind  
Wind Speed 18 mph (NNE)    
Max Wind Speed 32 mph    
Max Gust Speed 39 mph    
Visibility 10 miles    
Events      
T = Trace of Precipitation, MM = Missing Value Source: NWS Daily Summary

Daily Weather History Graph

Daily Weather History Graph

Search for Another Location

Airport or City:

Trip Planner

Search our weather history database for the weather conditions in past years. The results will help you decide how hot, cold, wet, or windy it might be!

Date:

Astronomy

Jul. 04, 2013 Rise Set
Actual Time 5:42 AM PDT 9:00 PM PDT
Civil Twilight 5:06 AM PDT 9:35 PM PDT
Nautical Twilight 4:20 AM PDT 10:21 PM PDT
Astronomical Twilight 3:24 AM PDT 11:18 PM PDT
Moon 3:05 AM PDT (7/4) 6:08 PM PDT (7/4)
Length of Visible Light 16h 29m
Length of Day
15h 18m
Waning Crescent, 11% of the Moon is Illuminated
Jul 4
Waning Crescent
Jul 8
New
Jul 15
First Quarter
Jul 22
Full
Jul 29
Last Quarter

Hourly Weather History & Observations

Time (PDT) Temp. Dew Point Humidity Pressure Visibility Wind Dir Wind Speed Gust Speed Precip Events Conditions
12:15 AM 68.0 °F 64.4 °F 88% 30.14 in 10.0 mi NNE 12.7 mph 16.1 mph N/A   Clear
12:35 AM 68.0 °F 64.4 °F 88% 30.14 in 10.0 mi NNE 10.4 mph - N/A   Clear
12:55 AM 66.2 °F 64.4 °F 94% 30.13 in 10.0 mi NNE 8.1 mph - N/A   Clear
1:15 AM 68.0 °F 64.4 °F 88% 30.13 in 10.0 mi NNE 8.1 mph - N/A   Clear
1:35 AM 66.2 °F 62.6 °F 88% 30.13 in 10.0 mi NNE 8.1 mph - N/A   Clear
1:55 AM 66.2 °F 62.6 °F 88% 30.13 in 10.0 mi NE 6.9 mph - N/A   Clear
2:15 AM 62.6 °F 60.8 °F 94% 30.13 in 10.0 mi NNE 4.6 mph - N/A   Clear
2:35 AM 62.6 °F 60.8 °F 94% 30.14 in 10.0 mi NNE 3.5 mph - N/A   Clear
2:55 AM 62.6 °F 60.8 °F 94% 30.13 in 10.0 mi NE 3.5 mph - N/A   Clear
3:15 AM 62.6 °F 60.8 °F 94% 30.13 in 10.0 mi NNE 8.1 mph - N/A   Clear
3:35 AM 62.6 °F 60.8 °F 94% 30.13 in 10.0 mi NNE 8.1 mph - N/A   Clear
3:55 AM 62.6 °F 60.8 °F 94% 30.13 in 10.0 mi NNE 4.6 mph - N/A   Clear
4:15 AM 64.4 °F 62.6 °F 94% 30.13 in 10.0 mi NNE 10.4 mph - N/A   Clear
4:35 AM 62.6 °F 60.8 °F 94% 30.13 in 10.0 mi NNE 11.5 mph 16.1 mph N/A   Clear
4:55 AM 64.4 °F 62.6 °F 94% 30.13 in 10.0 mi NE 8.1 mph - N/A   Clear
5:15 AM 64.4 °F 62.6 °F 94% 30.14 in 10.0 mi ENE 5.8 mph - N/A   Clear
5:35 AM 62.6 °F 60.8 °F 94% 30.14 in 10.0 mi NE 5.8 mph - N/A   Clear
5:55 AM 62.6 °F 60.8 °F 94% 30.14 in 10.0 mi NNE 10.4 mph - N/A   Clear
6:15 AM 64.4 °F 60.8 °F 88% 30.14 in 10.0 mi NNE 10.4 mph - N/A   Clear
6:35 AM 64.4 °F 60.8 °F 88% 30.15 in 10.0 mi NE 6.9 mph - N/A   Clear
6:55 AM 66.2 °F 62.6 °F 88% 30.15 in 10.0 mi ENE 5.8 mph - N/A   Clear
7:15 AM 64.4 °F 60.8 °F 88% 30.15 in 10.0 mi ENE 4.6 mph - N/A   Clear
7:35 AM 66.2 °F 60.8 °F 83% 30.15 in 10.0 mi Calm Calm - N/A   Clear
7:55 AM 66.2 °F 60.8 °F 83% 30.15 in 10.0 mi NNE 5.8 mph - N/A   Clear
8:15 AM 66.2 °F 60.8 °F 83% 30.15 in 10.0 mi NE 4.6 mph - N/A   Clear
8:35 AM 68.0 °F 60.8 °F 78% 30.15 in 10.0 mi NE 4.6 mph - N/A   Clear
8:55 AM 66.2 °F 57.2 °F 73% 30.15 in 10.0 mi NNE 11.5 mph - N/A   Clear
9:15 AM 68.0 °F 57.2 °F 68% 30.15 in 10.0 mi North 10.4 mph - N/A   Clear
9:35 AM 68.0 °F 57.2 °F 68% 30.14 in 10.0 mi North 13.8 mph 20.7 mph N/A   Clear
9:55 AM 64.4 °F 53.6 °F 68% 30.14 in 10.0 mi North 17.3 mph 25.3 mph N/A   Clear
10:15 AM 71.6 °F 60.8 °F 69% 30.14 in 10.0 mi NNE 19.6 mph 23.0 mph N/A   Clear
10:35 AM 71.6 °F 60.8 °F 69% 30.13 in 10.0 mi North 21.9 mph 25.3 mph N/A   Clear
10:55 AM 71.6 °F 60.8 °F 69% 30.13 in 10.0 mi NNE 19.6 mph 27.6 mph N/A   Clear
11:15 AM 73.4 °F 60.8 °F 65% 30.13 in 10.0 mi North 21.9 mph 27.6 mph N/A   Clear
11:35 AM 71.6 °F 60.8 °F 69% 30.13 in 10.0 mi North 21.9 mph 32.2 mph N/A   Clear
11:55 AM 71.6 °F 60.8 °F 69% 30.13 in 10.0 mi NNE 23.0 mph 31.1 mph N/A   Clear
12:15 PM 71.6 °F 60.8 °F 69% 30.13 in 10.0 mi NNE 25.3 mph 32.2 mph N/A   Clear
12:35 PM 71.6 °F 60.8 °F 69% 30.13 in 10.0 mi NNE 28.8 mph 35.7 mph N/A   Clear
12:55 PM 71.6 °F 60.8 °F 69% 30.12 in 10.0 mi NNE 25.3 mph 34.5 mph N/A   Clear
1:15 PM 69.8 °F 59.0 °F 68% 30.12 in 10.0 mi NNE 26.5 mph 35.7 mph N/A   Clear
1:35 PM 73.4 °F 62.6 °F 69% 30.12 in 8.0 mi NNE 26.5 mph 35.7 mph N/A   Clear
1:55 PM 75.2 °F 62.6 °F 65% 30.12 in 9.0 mi NNE 31.1 mph 36.8 mph N/A   Clear
2:15 PM 73.4 °F 62.6 °F 69% 30.12 in 10.0 mi NNE 24.2 mph 36.8 mph N/A   Clear
2:35 PM 75.2 °F 64.4 °F 69% 30.11 in 10.0 mi NNE 26.5 mph 34.5 mph N/A   Clear
2:55 PM 71.6 °F 62.6 °F 73% 30.11 in 10.0 mi NNE 25.3 mph 39.1 mph N/A   Clear
3:15 PM 73.4 °F 62.6 °F 69% 30.11 in 10.0 mi NNE 25.3 mph 36.8 mph N/A   Clear
3:35 PM 71.6 °F 62.6 °F 73% 30.10 in 10.0 mi NNE 24.2 mph 35.7 mph N/A   Clear
3:55 PM 71.6 °F 60.8 °F 69% 30.10 in 10.0 mi NNE 32.2 mph 38.0 mph N/A   Clear
4:15 PM 66.2 °F 55.4 °F 68% 30.10 in 10.0 mi NNE 26.5 mph 36.8 mph N/A   Clear
4:35 PM 66.2 °F 57.2 °F 73% 30.10 in 10.0 mi NNE 28.8 mph 38.0 mph N/A   Clear
4:55 PM 66.2 °F 57.2 °F 73% 30.09 in 10.0 mi NNE 27.6 mph 38.0 mph N/A   Clear
5:15 PM 73.4 °F 64.4 °F 73% 30.08 in 10.0 mi NNE 28.8 mph 39.1 mph N/A   Clear
5:35 PM 69.8 °F 60.8 °F 73% 30.08 in 10.0 mi NNE 24.2 mph 35.7 mph N/A   Partly Cloudy
5:55 PM 69.8 °F 60.8 °F 73% 30.08 in 10.0 mi NNE 26.5 mph 34.5 mph N/A   Partly Cloudy
6:15 PM 69.8 °F 60.8 °F 73% 30.08 in 10.0 mi NNE 27.6 mph 35.7 mph N/A   Clear
6:35 PM 66.2 °F 57.2 °F 73% 30.08 in 10.0 mi NNE 21.9 mph 34.5 mph N/A   Clear
6:55 PM 71.6 °F 64.4 °F 78% 30.08 in 10.0 mi NNE 23.0 mph 31.1 mph N/A   Partly Cloudy
7:15 PM 71.6 °F 64.4 °F 78% 30.07 in 10.0 mi NNE 24.2 mph 34.5 mph N/A   Partly Cloudy
7:35 PM 69.8 °F 62.6 °F 78% 30.07 in 10.0 mi NNE 25.3 mph 33.4 mph N/A   Clear
7:55 PM 66.2 °F 60.8 °F 83% 30.07 in 10.0 mi NNE 27.6 mph 34.5 mph N/A   Clear
8:15 PM 69.8 °F 64.4 °F 83% 30.07 in 10.0 mi NNE 20.7 mph 29.9 mph N/A   Clear
8:35 PM 68.0 °F 64.4 °F 88% 30.07 in 10.0 mi NNE 20.7 mph 28.8 mph N/A   Clear
8:55 PM 66.2 °F 62.6 °F 88% 30.08 in 10.0 mi NNE 18.4 mph 26.5 mph N/A   Partly Cloudy
9:15 PM 66.2 °F 62.6 °F 88% 30.08 in 10.0 mi NNE 18.4 mph 27.6 mph N/A   Partly Cloudy
9:35 PM 66.2 °F 62.6 °F 88% 30.08 in 10.0 mi NNE 18.4 mph 27.6 mph N/A   Partly Cloudy
9:55 PM 64.4 °F 62.6 °F 94% 30.08 in 10.0 mi NNE 19.6 mph 27.6 mph N/A   Partly Cloudy
10:15 PM 64.4 °F 62.6 °F 94% 30.09 in 10.0 mi NNE 20.7 mph 28.8 mph N/A   Clear
10:35 PM 64.4 °F 62.6 °F 94% 30.09 in 10.0 mi NNE 20.7 mph 27.6 mph N/A   Clear
10:55 PM 64.4 °F 62.6 °F 94% 30.09 in 10.0 mi NNE 19.6 mph 29.9 mph N/A   Clear
11:15 PM 64.4 °F 62.6 °F 94% 30.08 in 10.0 mi NNE 21.9 mph 26.5 mph N/A   Clear
11:35 PM 64.4 °F 60.8 °F 88% 30.08 in 10.0 mi NNE 21.9 mph - N/A   Clear
11:55 PM 64.4 °F 60.8 °F 88% 30.08 in 10.0 mi NNE 18.4 mph 27.6 mph N/A   Clear